Regional Weather Roundup
Issued by NWS

Home | Current Version | Previous Version | Text Only | Print | Product List | Glossary On
Versions: 1 2 3 4 5 6 7 8 9 10 11 12 13 14 15 16 17 18 19 20 21 22 23 24 25 26 27 28 29 30 31 32 33 34 35 36 37 38 39 40 41 42 43 44 45 46 47 48 49 50
000
ASUS44 KEWX 182102
RWRTX
SOUTH TEXAS REGIONAL WEATHER ROUNDUP
NATIONAL WEATHER SERVICE AUSTIN/SAN ANTONIO TX
300 PM CST THU DEC 18 2014

NOTE: "FAIR" INDICATED FEW OR NO CLOUDS BELOW 12,000 FEET WITH NO
SIGNIFICANT WEATHER AND/OR OBSTRUCTIONS TO VISIBILITY.

* - THESE STATIONS ARE NOT NWS OR FAA STATIONS...AND ARE NOT SUBJECT
    TO NWS AND FAA QUALITY CONTROL.

TXZ171-172-183>190-182200-
TEXAS HILL COUNTRY AND EDWARDS PLATEAU

CITY           SKY/WX    TMP DP  RH WIND       PRES   REMARKS
JUNCTION       PTSUNNY   68  39  34 N3        30.03F
*LLANO         MOSUNNY   70  54  56 CALM      30.06F
BURNET         MOSUNNY   63  54  72 VRB3      30.06F
*HORSESHOE BAY CLOUDY    58  58 100 CALM      30.05F
*KERRVILLE     CLOUDY    66  59  77 CALM      30.03F
*FREDERICKSBRG PTSUNNY   67  55  66 SE3       30.03F
*ROCKSPRINGS   PTSUNNY   70  39  32 E6        30.05F
*BOERNE STAGE  CLOUDY    68  59  73 CALM      30.04F
*CASTROVILLE   CLOUDY    68  58  70 E7        30.03F
HONDO          CLOUDY    70  61  73 E7        30.03F
*UVALDE        CLOUDY    60  52  74 E3        30.01F
DEL RIO        CLOUDY    65  54  67 NW6       30.00F
LAUGHLIN AFB   CLOUDY    67  57  71 VRB6      30.00F
CARRIZO SPRGS  CLOUDY    63  59  88 N3        30.00F
$$

TXZ173-191>194-202-209-217>225-228-182200-
CENTRAL AND SOUTH CENTRAL TEXAS

CITY           SKY/WX    TMP DP  RH WIND       PRES   REMARKS
GEORGETOWN     CLOUDY    57  54  88 N5        30.06S
AUSTIN/BERGSTM CLOUDY    60  55  83 NE8       30.05S
AUSTIN/MABRY   CLOUDY    60  56  86 CALM      30.06F
*AUSTIN/EXEC   CLOUDY    57  55  94 N13       30.06F
*LAGO VISTA    CLOUDY    59  57  94 CALM      30.06S
SAN MARCOS     CLOUDY    61  54  77 NE8       30.04F
NEW BRAUNFELS  CLOUDY    64  57  78 NE8       30.03F
RANDOLPH AFB   PTSUNNY   65  58  78 NE8       30.03F
PT SAN ANTONIO CLOUDY    66  59  78 NE6       30.00F
SAN ANTONIO    CLOUDY    65  59  81 NE6       30.03F
STINSON FIELD  CLOUDY    67  58  72 NE5       30.01F
*PLEASANTON    CLOUDY    66  58  75 N6        30.02F
*LA GRANGE     CLOUDY    63  58  85 N5        30.03F
*GIDDINGS      CLOUDY    56  55  96 NE5       30.09F FOG
*GONZALES      CLOUDY    64  58  81 NE8       30.03F
$$

TXZ163>164-176>182-195>201-210>213-226-227-235-182200-
SOUTHEAST TEXAS

CITY           SKY/WX    TMP DP  RH WIND       PRES   REMARKS
COLLEGE STN    CLOUDY    60  54  80 N6        30.06S
*BRYAN         CLOUDY    59  55  86 N6        30.07F
*CALDWELL      CLOUDY    55  55 100 N6        30.09F
*CROCKETT      CLOUDY    57  55  94 NE6       30.10F
*BRENHAM       CLOUDY    63  58  83 N6        30.05F
HUNTSVILLE     CLOUDY    63  55  75 VRB3      30.06S
CONROE         CLOUDY    66  59  78 E5        30.05S
HOUSTON BUSH   CLOUDY    69  62  78 NE6       30.04R
HOUSTON HOBBY  PTSUNNY   70  64  81 N5        30.02F
*HOUSTON SW AP CLOUDY    60  56  88 N6        30.03S FOG
PEARLAND       CLOUDY    72  65  78 NE5       30.03F
HOUSTON HOOKS  CLOUDY    72  61  68 NE6       30.03F
ELLINGTON FLD  CLOUDY    70  68  94 N5        30.02F FOG
SUGAR LAND     CLOUDY    71  63  75 NE6       30.02S
*HOUSTON EXEC  CLOUDY    68  63  83 N7        30.04F
*CLEVELAND MUN CLOUDY    64  60  86 NE3       30.07R
*WHARTON       CLOUDY    69  65  86 N6        30.02  FOG
*COLUMBUS      CLOUDY    63  59  87 N6        30.02F FOG
$$

TXZ214>216-236>238-182200-
THE UPPER TEXAS COAST

CITY           SKY/WX    TMP DP  RH WIND       PRES   REMARKS
*ORANGE        CLOUDY    61  57  87 N5        30.07R FOG
PORT ARTHUR    CLOUDY    63  59  87 N8        30.04F FOG
GALVESTON      CLOUDY    65  65 100 N6        30.03S FOG
ANGLETON       CLOUDY    72  67  84 NE5       30.01S
*BAY CITY      LGT RAIN  73  69  88 CALM      30.00F
PALACIOS       PTSUNNY   75  67  76 CALM      29.98F
$$

TXZ229>234-239>247-182200-
TEXAS COASTAL BEND AND RIO GRANDE PLAINS

CITY           SKY/WX    TMP DP  RH WIND       PRES   REMARKS
VICTORIA       CLOUDY    68  64  87 N9        30.01F FOG
*BEEVILLE      LGT RAIN  68  63  85 NE9       29.98S
ROCKPORT       PTSUNNY   77  67  71 SE12      29.96F
*PORT ARANSAS  CLOUDY    70  67  90 SE7       29.98S
*PORT LAVACA   PTSUNNY   72  66  83 NE9       29.99F
*INGLESIDE     MOSUNNY   76  66  71 SE10G18   29.98S
CORPUS CHRISTI PTSUNNY   77  67  71 SE15      29.96F
CORPUS NAS     CLOUDY    72  69  90 SE10      29.97F
*ROBSTOWN      PTSUNNY   79  66  63 S12G17    29.96F
ALICE          CLOUDY    77  66  68 S8        29.95F
KINGSVILLE NAS CLOUDY    76  69  79 SE9       29.96F
COTULLA        CLOUDY    67  60  78 NE8       30.00F
*FAITH RANCH   CLOUDY    63  57  82 N8        30.02F
LAREDO         NOT AVBL
$$

TXZ248>255-182200-
DEEP SOUTH TEXAS

CITY           SKY/WX    TMP DP  RH WIND       PRES   REMARKS
BROWNSVILLE    CLOUDY    75  69  81 SE13      29.95F
PORT ISABEL    CLOUDY    73  68  84 SE12      29.95F HAZE
*SOUTH PADRE   PTSUNNY  N/A N/A N/A CALM      29.96F VSB 1
HARLINGEN      CLOUDY    72  69  90 NW6       29.95F
*HEBBRONVILLE  CLOUDY    64  62  93 NW7       30.00S
MCALLEN        CLOUDY    67  60  78 NW6       29.97F HAZE
*WESLACO       CLOUDY    67  63  86 NW5       29.96F FOG
FALFURRIAS     CLOUDY    70  68  93 CALM      29.96F
EDINBURG       CLOUDY    73  64  73 NW3       29.97F
*ZAPATA        RAIN      59  59 100 NW6       30.00S
$$

TXZ213>215-236>238-242>244-246-247-251-254-255-182200-
CMAN STATIONS

STATION/POSITION TIME  TEMP    WIND        PRES    WAVE
                       AIR SEA DIR/SP/G            HT/PER
                 (UTC) (F)     (DEG/KT/KT) (MB)    (FT/S)
SABINE PASS      2000   62 62   10/  6/  8 1017.1
SEA RIM ST PARK  2000   63      40/  7/  9 1017.6
NORTH JETTY/GLS  2000   65 62   70/  6/  6   N/A
EAGLE POINT      2000   63 63   90/  4/  5 1016.8
MORGANS POINT    2000   63      80/  6/  7 1016.7
MISSION/ARANSAS  2000   70     110/  4     1017.0
PORT O`CONNOR    2000           60/  4/  5   N/A
PORT ARANSAS     2000   70 66  130/  8/  8 1015.8
MALAQUITE BEACH  2000   68 69  110/  8/  9 1014.5
BAFFIN BAY       2000   71     120/  5/  7 1014.9
PORT ISABEL      2000   72 69  150/  8/ 12 1014.8
$$

GMZ080-GMZ150>470-182200-
OFFSHORE BUOY REPORTS

STATION/POSITION TIME  TEMP    WIND        PRES    WAVE
                       AIR SEA DIR/SP/G            HT/PER
                 (UTC) (F)     (DEG/KT/KT) (MB)    (FT/S)
20 E GALVESTON   2100   65 65   30/  4/  4 1016.3    3/ 6
90 E PT ARANSAS  2100   72 71  180/ 12/ 12 1016.0    4/ 6
35 NE PT MANSFLD 2000   73 74  170/ 12/ 16 1015.1    4/ 6
200 E PT ISABEL  2000   74 73  160/ 12/ 14 1016.8    3/ 5
$$



USA.gov is the U.S. government's official web portal to all federal, state and local government web resources and services.